Hourly Data Report for March 11, 2021

KUGAARUK CLIMATE
NUNAVUT
Current Station Operator: ECCC - MSC

68°32'15.060" N
89°47'47.020" W
15.80 m
2303094
71407
NBB

Download Data

Hourly Data (March 2021)
Hourly Data Report for March 11, 2021
TIME
LST
Temp Definition
°C
Dew Point Definition
°C
Rel Hum Definition
%
Precip. Amount Definition
mm

Wind Dir Definition
10's deg

Wind Spd Definition
km/h
Visibility Definition
km
Stn Press Definition
kPa
Hmdx Definition


Wind Chill Definition


Weather Definition


00:00 -32.0 -35.6 71 0.0 23 39   100.53   -50 LegendNANA
01:00 -32.1 -35.6 71 0.0 23 41   100.53   -50 LegendNANA
02:00 -31.7 -35.2 71 0.0 24 36   100.58   -49 LegendNANA
03:00 -31.9 -35.3 72 0.0 24 30   100.61   -48 LegendNANA
04:00 -31.9 -35.3 72 0.0 24 26   100.62   -47 LegendNANA
05:00 -31.7 -35.1 72 0.0 23 35   100.60   -49 LegendNANA
06:00 -32.4 -35.9 71 0.0 24 41   100.57   -51 LegendNANA
07:00 -32.5 -36.1 70 0.0 23 41   100.57   -51 LegendNANA
08:00 -32.0 -35.9 69 0.0 23 33   100.64   -49 LegendNANA
09:00 -31.7 -35.8 67 0.0 23 33   100.63   -48 LegendNANA
10:00 -31.4 -35.6 66 0.0 23 31   100.66   -48 LegendNANA
11:00 -30.8 -35.2 65 0.0 23 35   100.67   -48 LegendNANA
12:00 -30.3 -34.5 67 0.0 23 35   100.69   -47 LegendNANA
13:00 -29.8 -33.7 69 0.0 24 31   100.71   -46 LegendNANA
14:00 -29.9 -34.1 67 0.0 24 25   100.75   -44 LegendNANA
15:00 -30.0 -33.8 69 0.0 23 19   100.79   -43 LegendNANA
16:00 -30.3 -34.2 69 0.0 23 25   100.81   -45 LegendNANA
17:00 -31.2 -34.9 70 0.0 24 23   100.86   -45 LegendNANA
18:00 -31.7 -35.3 70 0.0 23 22   100.89   -46 LegendNANA
19:00 -33.4 -37.0 70 0.0 25 14   100.89   -45 LegendNANA
20:00 -34.2 -37.7 70 0.0 27 9   100.92   -44 LegendNANA
21:00 -34.6 -38.3 69 0.0 27 7   100.96   -43 LegendNANA
22:00 -33.8 -37.4 70 0.0 23 16   100.95   -46 LegendNANA
23:00 -34.1 -37.8 69 0.0 23 17   101.00   -47 LegendNANA

Notes on Data Quality.

Legend

  • E = Estimated
  • M = Missing
  • NA = Not Available*
  • [empty] = Indicates an unobserved value
Date modified: